DW9132 Weather Reports


time (UTC)temp
C
wind
direction
speed
KPH
gust
KPH
rain 1hr
cm
rain 24hr
cm
rain mn
cm
humidity
%
barometer
mb
20200811160209 20 299 0.0 0.0 0.00 0.00 0.00 84 1002.3
20200811155207 20 299 0.0 0.0 0.00 0.00 0.00 81 1002.3
20200811154708 21 298 0.0 0.0 0.00 0.00 0.00 81 1002.3
20200811153707 21 293 0.0 0.0 0.00 0.00 0.00 82 1002.2
20200811153207 21 299 0.0 0.0 0.00 0.00 0.00 83 1002.1
20200811152707 20 286 0.0 0.0 0.00 0.00 0.00 83 1002.2
20200811152206 20 293 0.0 0.0 0.00 0.00 0.00 83 1002.3
20200811151208 20 298 0.0 0.0 0.00 0.00 0.00 83 1002.4
20200811145707 21 298 0.0 0.0 0.00 0.00 0.00 81 1002.6
20200811145207 21 293 0.0 0.0 0.00 0.00 0.00 80 1002.3
20200811144708 21 299 0.0 0.0 0.00 0.00 0.00 79 1002.3
20200811143707 21 297 0.0 0.0 0.00 0.00 0.00 78 1002.4
20200811143206 21 297 0.0 0.0 0.00 0.00 0.00 77 1002.4
20200811142709 21 294 0.0 0.0 0.00 0.00 0.00 76 1002.5
20200811142207 21 298 0.0 0.0 0.00 0.00 0.00 77 1002.6
20200811141207 21 299 0.0 0.0 0.00 0.00 0.00 75 1002.6
20200811140707 21 297 0.0 0.0 0.00 0.00 0.00 74 1002.7
20200811140207 21 297 0.0 0.0 0.00 0.00 0.00 73 1002.8
20200811132707 21 291 0.0 0.0 0.00 0.00 0.00 72 1002.9
20200811132207 21 291 0.0 0.0 0.00 0.00 0.00 71 1002.6
20200811115208 21 297 0.0 0.0 0.00 0.00 0.00 76 1002.4
20200811114707 21 300 0.0 0.0 0.00 0.00 0.00 76 1002.4
20200811114207 21 300 0.0 0.0 0.00 0.00 0.00 76 1002.2
20200811113708 21 299 0.0 0.0 0.00 0.00 0.00 76 1002.4
20200811113207 21 297 0.0 0.0 0.00 0.00 0.00 75 1002.4
20200811112207 21 299 0.0 0.0 0.00 0.00 0.00 78 1002.3
20200811110707 21 300 0.0 0.0 0.00 0.00 0.00 80 1002.1
20200811110207 21 300 0.0 0.0 0.00 0.00 0.00 79 1002.2
20200811105708 21 300 0.0 0.0 0.00 0.00 0.00 79 1002.4
20200811104707 21 299 0.0 0.0 0.00 0.00 0.00 79 1002.1
20200811104214 21 300 0.0 0.0 0.00 0.00 0.00 80 1002.0
20200811102706 21 300 0.0 0.0 0.00 0.00 0.00 82 1002.0
20200811102210 21 299 0.0 0.0 0.00 0.00 0.00 83 1002.2
20200811101207 21 299 0.0 0.0 0.00 0.00 0.00 85 1002.1
20200811100207 21 298 0.0 0.0 0.00 0.00 0.00 87 1002.0
20200811095707 21 298 0.0 0.0 0.00 0.00 0.00 88 1002.1
20200811094707 21 291 0.0 0.0 0.00 0.00 0.00 92 1001.9
20200811094207 20 299 0.0 0.0 0.00 0.00 0.00 94 1002.0
20200811093707 20 299 0.0 0.0 0.00 0.00 0.00 95 1001.9
20200811093208 20 299 0.0 0.0 0.00 0.00 0.00 99 1001.9
20200811092707 20 300 0.0 0.0 0.00 0.00 0.00 100 1001.9
20200811091207 20 300 0.0 0.0 0.00 0.00 0.00 100 1001.7
20200811085207 20 300 0.0 0.0 0.00 0.00 0.00 100 1001.8
20200811084707 20 300 0.0 0.0 0.00 0.00 0.00 100 1001.8
20200811084207 20 299 0.0 0.0 0.00 0.00 0.00 100 1001.9
20200811083708 20 300 0.0 0.0 0.00 0.00 0.00 100 1001.7
20200811081707 19 300 0.0 0.0 0.00 0.00 0.00 100 1001.6
20200811080707 19 297 0.0 0.0 0.00 0.00 0.00 100 1001.6
20200811080206 19 300 0.0 0.0 0.00 0.00 0.00 100 1001.9
20200811074707 18 297 0.0 0.0 0.00 0.00 0.00 100 1002.0
20200811073207 18 300 0.0 0.0 0.00 0.00 0.00 100 1001.7
20200811072209 18 298 0.0 0.0 0.00 0.00 0.00 100 1001.0
20200811071708 18 299 0.0 0.0 0.00 0.00 0.00 100 1001.1
20200811071207 18 300 0.0 0.0 0.00 0.00 0.00 100 1001.1
20200811070708 18 298 0.0 0.0 0.00 0.00 0.00 100 1001.1
20200811070207 18 298 0.0 0.0 0.00 0.00 0.00 100 1001.0
20200811065707 18 300 0.0 0.0 0.00 0.00 0.00 100 1001.2
20200811064707 18 296 0.0 0.0 0.00 0.00 0.00 100 1000.9
20200811064207 18 295 0.0 0.0 0.00 0.00 0.00 100 1001.1
20200811063707 18 300 0.0 0.0 0.00 0.00 0.00 100 1001.1
20200811062707 18 300 0.0 0.0 0.00 0.00 0.00 100 1001.0
20200811062207 18 299 0.0 0.0 0.00 0.00 0.00 100 1001.1
20200811061207 18 300 0.0 0.0 0.00 0.00 0.00 100 1001.3
20200811060207 18 298 0.0 0.0 0.00 0.00 0.00 100 1001.2
20200811005707 18 300 0.0 0.0 0.00 0.00 0.00 100 1001.2
20200811004706 18 296 0.0 0.0 0.00 0.00 0.00 100 1001.1
20200811004207 18 286 0.0 0.0 0.00 0.00 0.00 100 1001.4
20200811003707 18 288 0.0 0.0 0.00 0.00 0.00 100 1001.7
20200811002207 18 284 0.0 0.0 0.00 0.00 0.00 100 1001.6
20200811001707 18 278 0.0 0.0 0.00 0.00 0.00 100 1001.9
20200811000707 18 297 0.0 0.0 0.00 0.00 0.00 100 1001.7
20200811000207 18 278 0.0 0.0 0.00 0.00 0.00 100 1001.6
20200810235706 18 292 0.0 0.0 0.00 0.00 0.00 100 1001.6
20200810234706 18 290 0.0 0.0 0.00 0.00 0.00 100 1001.3
20200810234206 18 284 0.0 0.0 0.00 0.00 0.00 100 1001.4
20200810233206 18 295 0.0 0.0 0.00 0.00 0.00 100 1001.4
20200810232706 18 298 0.0 0.0 0.00 0.00 0.00 100 1001.3
20200810232207 18 292 0.0 0.0 0.00 0.00 0.00 100 1001.6
20200810231706 18 297 0.0 0.0 0.00 0.00 0.00 100 1001.5
20200810231207 18 295 0.0 0.0 0.00 0.00 0.00 100 1001.8
20200810225206 18 287 0.0 0.0 0.00 0.00 0.00 100 1001.7
20200810224207 18 296 0.0 0.0 0.00 0.00 0.00 100 1002.1
20200810223207 18 300 0.0 0.0 0.00 0.00 0.00 100 1001.8
20200810222707 18 297 0.0 0.0 0.00 0.00 0.00 100 1001.6
20200810221712 18 296 0.0 0.0 0.00 0.00 0.00 100 1001.8
20200810220707 18 298 0.0 0.0 0.00 0.00 0.00 100 1001.8
20200810220207 18 296 0.0 0.0 0.00 0.00 0.00 100 1001.6
20200810215707 18 298 0.0 0.0 0.00 0.00 0.00 99 1001.7
20200810214706 18 299 0.0 0.0 0.00 0.00 0.00 99 1001.7
20200810214207 18 293 0.0 0.0 0.00 0.00 0.00 99 1001.8
20200810213206 18 295 0.0 0.0 0.00 0.00 0.00 99 1001.8
20200810212706 18 293 0.0 0.0 0.00 0.00 0.00 99 1001.7
20200810211706 18 296 0.0 0.0 0.00 0.00 0.00 99 1001.5
20200810211207 18 293 0.0 0.0 0.00 0.00 0.00 100 1001.5
20200810210207 18 296 0.0 0.0 0.00 0.00 0.00 99 1001.2
20200810205706 18 295 0.0 0.0 0.00 0.00 0.00 99 1001.0
20200810204706 18 297 0.0 0.0 0.00 0.00 0.00 99 1001.1
20200810204207 18 297 0.0 0.0 0.00 0.00 0.00 99 1001.2
20200810203207 18 298 0.0 0.0 0.00 0.00 0.00 97 1001.3
20200810202707 18 298 0.0 0.0 0.00 0.00 0.00 97 1001.0
20200810202208 18 296 0.0 0.0 0.00 0.00 0.00 97 1001.0
20200810201707 18 297 0.0 0.0 0.00 0.00 0.00 97 1000.9
20200810201206 18 292 0.0 0.0 0.00 0.00 0.00 96 1000.6
20200810195707 18 297 0.0 0.0 0.00 0.00 0.00 94 1000.7
20200810194209 18 293 0.0 0.0 0.00 0.00 0.00 93 1001.0
20200810193706 18 291 0.0 0.0 0.00 0.00 0.00 92 1000.8
20200810192706 19 296 0.0 0.0 0.00 0.00 0.00 92 1000.7
20200810192210 19 294 0.0 0.0 0.00 0.00 0.00 90 1000.4
20200810191708 19 296 0.0 0.0 0.00 0.00 0.00 89 1000.5
20200810190206 19 297 0.0 0.0 0.00 0.00 0.00 88 1000.4
20200810185207 19 297 0.0 0.0 0.00 0.00 0.00 86 1000.5
20200810184707 19 294 0.0 0.0 0.00 0.00 0.00 85 1000.5
20200810184212 19 296 0.0 0.0 0.00 0.00 0.00 83 1000.7
20200810183206 19 299 0.0 0.0 0.00 0.00 0.00 80 1000.2
20200810182706 20 299 0.0 0.0 0.00 0.00 0.00 78 1000.5
20200810181708 20 296 0.0 0.0 0.00 0.00 0.00 75 1000.6
20200810180707 20 283 0.0 0.0 0.00 0.00 0.00 72 1000.5
20200810174707 21 292 0.0 0.0 0.00 0.00 0.00 67 1000.8
20200810174206 21 269 0.0 0.0 0.00 0.00 0.00 66 1000.7
20200810173207 21 274 0.0 0.0 0.00 0.00 0.00 65 1000.7
20200810172207 21 234 0.0 0.0 0.00 0.00 0.00 64 1000.7
20200810171207 22 267 0.0 0.0 0.00 0.00 0.00 64 1000.6
20200810170706 22 238 0.0 0.0 0.00 0.00 0.00 63 1000.5
20200810165206 22 276 0.0 0.0 0.00 0.00 0.00 64 1000.6
20200810164206 22 288 0.0 0.0 0.00 0.00 0.00 62 1000.6
20200810163707 22 272 0.0 0.0 0.00 0.00 0.00 63 1000.6
20200810163206 22 296 0.0 0.0 0.00 0.00 0.00 63 1000.7
20200810162706 22 289 0.0 0.0 0.00 0.00 0.00 63 1000.5